Miscellaneous Local Product
Issued by NWS Hastings, NE

Home | Current Version | Previous Version | Text Only | Print | Product List | Glossary On
Versions: 1 2 3 4 5 6 7 8 9 10 11 12 13 14 15 16 17 18 19 20 21 22 23 24 25 26 27 28 29 30 31 32 33 34 35 36 37 38 39 40 41 42 43 44 45 46 47 48 49 50
901
AXUS43 KGID 141002
MISGRI

GID CWA HOURLY WEATHER ROUNDUP
NATIONAL WEATHER SERVICE HASTINGS NE
400 AM CST SUN FEB 14 2016

NOTE: "FAIR" INDICATES FEW OR NO CLOUDS BELOW 12,000 FEET WITH NO
SIGNIFICANT WEATHER AND/OR OBSTRUCTIONS TO VISIBILITY.

...SOUTH CENTRAL NEBRASKA...

CITY           SKY/WX    TMP DP  RH WIND       PRES   REMARKS
GRAND ISLAND   MOCLDY    21  14  74 SW18      29.90F WCI   6
HASTINGS       CLEAR     19  10  68 SW10      29.90F WCI   7
KEARNEY        CLEAR     21  16  79 SW15      29.89F WCI   8
ORD            CLOUDY    36  32  85 W14       29.84F WCI  27
YORK           CLOUDY    19  12  73 S17       29.94F WCI   4
AURORA         CLOUDY    20  12  71 SW15      29.92F WCI   6
LEXINGTON      CLEAR     24  22  89 W9        29.92F WCI  15
HOLDREGE       CLEAR     22  15  76 SW5       29.93F WCI  15
HEBRON         CLEAR     19  11  70 S6        29.99F WCI  11

...NEBRASKA PANHANDLE...

CITY           SKY/WX    TMP DP  RH WIND       PRES   REMARKS
CHADRON        CLEAR     30  23  75 CALM      29.96F
ALLIANCE       CLEAR     32  24  72 NW16      29.94F WCI  21
SCOTTSBLUFF    CLEAR     26  23  88 N6        29.99F WCI  19
SIDNEY         CLEAR     31  23  72 W13       29.98F WCI  21

...WESTERN AND NORTH CENTRAL NEBRASKA...

CITY           SKY/WX    TMP DP  RH WIND       PRES   REMARKS
VALENTINE      PTCLDY    35  31  85 W12       29.84F WCI  27
AINSWORTH      CLOUDY    38  33  80 NW21G28   29.83S WCI  28
ONEILL         CLOUDY    32  30  95 CALM      29.80F
BROKEN BOW     CLEAR     38  31  76 W22       29.86F WCI  27
IMPERIAL       CLEAR     34  26  72 W12       29.97F WCI  25
NORTH PLATTE   CLEAR     32  26  78 W10       29.91F WCI  24
MCCOOK         CLEAR     33  27  78 W16       29.95F WCI  23

...EASTERN NEBRASKA...

CITY           SKY/WX    TMP DP  RH WIND       PRES   REMARKS
NORFOLK        LGT SNOW  18  13  80 S12       29.87F VSB 1   WCI   5
SO SIOUX CITY  CLOUDY    19   7  59 S16       29.97F WCI   4
TEKAMAH        CLOUDY    18  11  74 SE21      29.97F WCI   1
COLUMBUS       CLOUDY    19   3  49 S14       29.91F WCI   6
ALBION         FLURRIES  21  15  79 S8        29.86F WCI  11
OMAHA EPPLEY   FLURRIES  20   8  60 SE22      30.00F WCI   3
OFFUTT AFB     CLOUDY    21   6  54 SE15      29.99F WCI   7
MILLARD        FLURRIES  21   7  56 SE15      30.01F WCI   7
LINCOLN        CLOUDY    20   9  62 S15       29.99F WCI   6
NEBRASKA CITY  CLOUDY    21   4  48 S14       30.02F WCI   8
BEATRICE       CLOUDY    19   6  56 S13       29.99F WCI   7
FALLS CITY     CLOUDY    23   5  46 SE9       30.05F WCI  13

...NORTHERN KANSAS...

CITY           SKY/WX    TMP DP  RH WIND       PRES   REMARKS
GOODLAND       CLEAR     29  23  78 W9        29.99F WCI  20
HILL CITY      CLEAR     28  23  81 NW9       29.97F WCI  19
NORTON         SUNNY     28  23  80 W10       29.94  WCI  19
PHILLIPSBURG   CLEAR     19  16  86 CALM      29.98F
SMITH CENTER   CLEAR     18  12  79 CALM      29.99F
BELOIT         CLEAR     18  10  73 CALM      30.01F
HAYS           CLOUDY    19   9  63 S6        30.00F WCI  11
RUSSELL        CLOUDY    19  15  84 SE7       29.98F WCI  10
CONCORDIA      CLOUDY    18   8  65 S5        30.00F WCI  11
SALINA         CLOUDY    21   9  59 NW5       30.06R WCI  15
TOPEKA         MOCLDY    26   6  42 SE6       30.05F WCI  19



USA.gov is the U.S. government's official web portal to all federal, state and local government web resources and services.